This is the latest recevied weather packets stored in our database for station/object KA2FNK. If no packets are shown the sender has not sent any weather packets the latest 10 day(s).
| Time | Temp. | Humidity | Pressure | Rain* | Wind** | Luminosity | Snow |
|---|---|---|---|---|---|---|---|
| 1777862194 | 20.56° C | 51% | 1007.4 hPa | 0 mm | - | - | - |
| 1777861893 | 20° C | 49% | 1007.4 hPa | 0 mm | - | - | - |
| 1777861592 | 20° C | 56% | 1007.4 hPa | 0 mm | - | - | - |
| 1777861291 | 19.44° C | 52% | 1007.2 hPa | 0 mm | - | - | - |
| 1777860990 | 20° C | 54% | 1007.3 hPa | 0 mm | - | - | - |
| 1777860689 | 20° C | 54% | 1007.3 hPa | 0 mm | - | - | - |
| 1777860388 | 20° C | 54% | 1007.4 hPa | 0 mm | - | - | - |
| 1777860087 | 20.56° C | 52% | 1007.4 hPa | 0 mm | - | - | - |
| 1777859786 | 20.56° C | 52% | 1007.4 hPa | 0 mm | - | - | - |
| 1777859485 | 20.56° C | 51% | 1007.4 hPa | 0 mm | - | - | - |
| 1777859184 | 20.56° C | 51% | 1007.3 hPa | 0 mm | - | - | - |
| 1777858883 | 21.11° C | 50% | 1007.4 hPa | 0 mm | - | - | - |
| 1777858582 | 21.11° C | 50% | 1007.2 hPa | 0 mm | - | - | - |
| 1777858281 | 21.67° C | 49% | 1007.3 hPa | 0 mm | - | - | - |
| 1777857980 | 21.67° C | 48% | 1007.3 hPa | 0 mm | - | - | - |
| 1777857679 | 21.67° C | 47% | 1007.4 hPa | 0 mm | - | - | - |
| 1777857378 | 22.22° C | 47% | 1007.4 hPa | 0 mm | - | - | - |
| 1777857077 | 22.22° C | 45% | 1007.4 hPa | 0 mm | - | - | - |
| 1777856776 | 22.78° C | 45% | 1007.4 hPa | 0 mm | - | - | - |
| 1777856475 | 22.78° C | 44% | 1007.4 hPa | 0 mm | - | - | - |
| 1777856174 | 22.78° C | 44% | 1007.3 hPa | 0 mm | - | - | - |
| 1777855873 | 23.33° C | 43% | 1007.3 hPa | 0 mm | - | - | - |
| 1777855572 | 23.33° C | 43% | 1007.3 hPa | 0 mm | - | - | - |
| 1777855271 | 23.33° C | 43% | 1007.3 hPa | 0 mm | - | - | - |
| 1777854970 | 23.33° C | 41% | 1007.2 hPa | 0 mm | - | - | - |
* Rain latest hour (hover to see other rain measurements)
** Current wind speed in m/s (hover to see current wind gust speed)